User: anonymous
Location: Mentone
(34.5413°N, 85.5351°W)
Time: 09:28:12
(UTC-05:00)
Language:

Cosmos 2026 Rocket - Orbit

View from above orbital plane
View from above orbital plane
View from above satellite
View from above satellite

Ground track
Ground track

The orbit data is extracted from the following two-line orbital elements,

1 20046U 89042B   14113.03182376  .00000044  00000-0  27681-4 0  2860
2 20046 082.9373 080.9589 0043181 057.5265 009.5043 13.77954666250712
Epoch (UTC): 23 April 2014 00:45:49
Eccentricity: 0.0043181
inclination: 82.9373°
perigee height: 939 km
apogee height: 1003 km
right ascension of ascending node: 80.9589°
argument of perigee: 57.5265°
revolutions per day: 13.77954666
mean anomaly at epoch: 9.5043°
orbit number at epoch: 25071

The dashed part of the orbit path shows where the satellite is in the earth's shadow,  

DLR